CAPE
0 0 0 0 0 0 0 0 0 0 0 0 0 0 0 0 0 0 0 0 0 0 0 0 0 0 0 0 0 0 0 0 0 0 0 0 0 0 0 0 0 0 0 0
0 0 0 0 0 0 0 0 0 0 0 0 0 0 0 0 0 0 0 0 0 0 0 0 0 0 0 0 0 0 0 0 0 0 0 0 0 0 0 0 0 0 0 1
0 0 0 0 0 0 0 0 0 0 0 0 0 0 0 0 0 0 0 0 0 0 0 0 0 0 0 0 0 0 0 0 0 0 0 0 0 0 0 0 0 1 2 2
0 0 0 0 0 0 0 0 0 0 0 0 0 0 0 0 0 0 0 0 0 0 0 0 0 0 0 0 0 0 0 0 0 0 0 0 0 0 0 0 0 1 2 3
0 0 0 0 0 0 0 0 0 0 0 0 0 0 0 0 0 0 0 0 0 0 0 0 0 0 0 0 0 0 0 0 0 0 0 0 0 0 0 0 0 1 3 5
0 0 0 0 0 0 0 0 0 0 0 1 0 0 0 0 0 0 0 0 0 0 0 0 0 0 0 0 0 0 0 0 0 0 0 2 2 2 2 1 2 4 6 5
0 0 0 0 0 0 0 0 6 7 4 2 0 0 0 0 0 0 0 0 0 0 0 0 0 0 0 0 0 0 0 0 0 0 0 1 2 3 5 5 4 5 5 5
1 0 0 0 0 1 0 0 7 6 1 0 0 0 0 0 0 0 0 0 0 0 0 0 0 0 0 0 0 0 0 0 0 0 0 1 2 3 3 4 8 7 6 6
2 0 0 0 0 0 3 4 0 3 0 1 0 0 0 0 0 0 0 0 0 0 0 0 0 0 0 0 0 0 0 0 0 0 1 1 3 5 5 7 6 9 7 5
1 1 0 1 0 0 3 0 4 3 1 1 0 0 0 0 0 0 0 0 0 0 0 0 0 0 0 0 0 0 0 1 0 1 3 3 4 6 8 6 6 7 6 7
0 0 0 1 2 1 2 4 2 1 0 5 1 0 0 0 0 0 0 0 0 0 0 0 0 0 0 0 0 0 0 0 0 1 3 5 5 5 6 5 4 5 5 5
0 1 1 0 0 2 2 4 1 7 0 0 0 0 0 0 0 0 0 0 0 0 0 0 0 0 0 0 0 0 0 0 0 0 3 3 3 4 4 5 4 6 6 9
2 2 1 0 3 1 3 1 1 0 0 0 0 0 0 0 0 0 0 0 0 0 0 0 0 0 0 0 0 0 0 0 0 1 1 1 1 3 2 4 5 4 5 6
2 2 0 0 0 0 1 1 0 1 2 0 0 0 0 0 0 0 0 0 0 0 0 0 0 0 0 0 0 0 0 0 0 0 0 0 1 2 3 3 2 4 5 4
2 2 0 0 0 0 2 5 1 1 0 1 0 0 0 0 0 0 0 0 0 0 0 0 0 0 0 0 0 0 0 0 0 0 0 0 0 1 1 1 1 3 3 6
3 3 0 0 0 0 0 0 2 0 0 0 0 0 0 0 0 0 0 0 0 0 0 0 0 0 0 0 0 0 0 0 0 0 0 0 1 0 1 2 1 2 3 4
2 4 0 0 0 0 0 0 0 0 0 0 0 0 0 0 0 0 0 0 0 0 0 0 0 0 0 0 0 0 0 0 0 0 0 0 0 0 0 0 0 0 0 0
2 0 1 1 0 1 0 0 0 0 0 0 0 0 0 0 0 0 0 0 0 0 0 0 0 0 0 0 0 0 0 0 0 0 0 0 0 0 0 0 0 0 0 0
2 1 1 1 0 0 0 0 0 0 0 0 0 0 0 0 0 0 0 0 0 0 0 0 0 0 0 0 0 0 0 0 0 0 0 0 0 0 0 0 0 0 0 0
4 1 2 0 0 0 0 0 0 0 0 0 0 0 0 0 0 3 0 0 0 0 0 0 0 0 0 0 0 0 0 0 0 0 0 0 0 0 0 0 0 0 0 0
2 4 2 1 1 0 0 0 0 0 0 0 0 0 0 2 1 0 0 0 0 0 0 0 0 0 0 0 0 0 0 0 0 0 0 0 0 0 0 0 0 0 0 0
0 0 0 0 1 0 0 0 0 0 0 0 0 2 1 1 0 0 0 0 0 0 0 0 0 0 0 0 0 0 0 0 0 0 0 0 0 0 0 0 0 0 0 0
1 0 0 0 0 0 0 0 0 0 0 0 1 1 3 2 0 0 0 0 0 0 0 0 0 0 0 0 0 0 0 0 0 0 0 0 0 0 0 0 0 0 0 0
0 0 2 0 0 0 0 0 0 0 0 0 0 2 3 0 0 0 0 0 0 0 0 0 0 0 0 0 0 0 0 0 0 0 0 0 0 0 0 0 0 0 0 0
0 1 0 0 0 0 0 0 0 0 0 0 0 0 0 0 0 1 0 0 0 0 0 0 0 0 0 0 0 0 0 0 0 0 0 0 0 0 0 0 0 0 0 0
0 0 0 0 0 0 0 0 0 0 0 0 0 0 0 0 0 0 0 0 0 1 0 0 0 0 0 0 0 0 0 0 0 0 0 0 0 0 0 0 0 0 0 0
CIN
0 0 0 0 0 0 0 0 0 0 0 0 0 0 0 0 0 0 0 0 0 0 0 0 0 0 0 0 0 0 0 0 0 0 0 0 0 0 0 0 0 0 0 0
0 0 0 0 0 0 0 0 0 0 0 0 0 0 0 0 0 0 0 0 0 0 0 0 0 0 0 0 0 0 0 0 0 0 0 0 0 0 0 0 0 0 0 0
0 0 0 0 0 0 0 0 0 0 0 0 0 0 0 0 0 0 0 0 0 0 0 0 0 0 0 0 0 0 0 0 0 0 0 0 0 0 0 0 0 0 0 0
0 0 0 0 0 0 0 0 0 0 0 0 0 0 0 0 0 0 0 0 0 0 0 0 0 0 0 0 0 0 0 0 0 0 0 0 0 0 0 0 0 0 0 0
0 0 0 0 0 0 0 0 0 0 0 0 0 0 0 0 0 0 0 0 0 0 0 0 0 0 0 0 0 0 0 0 0 0 0 0 0 0 0 0 0 0 0 0
0 0 0 0 0 0 0 0 0 0 0 0 0 0 0 0 0 0 0 0 0 0 0 0 0 0 0 0 0 0 0 0 0 0 0 0 0 0 0 0 0 0 0 0
0 0 0 0 0 0 0 0 0 0 0 0 0 0 0 0 0 0 0 0 0 0 0 0 0 0 0 0 0 0 0 0 0 0 0 0 0 0 0 0 0 0 0 0
0 0 0 0 0 0 0 0 0 0 0 0 0 0 0 0 0 0 0 0 0 0 0 0 0 0 0 0 0 0 0 0 0 0 0 0 0 0 0 0 0 0 0 0
0 0 0 0 0 0 0 0 0 0 0 0 0 0 0 0 0 0 0 0 0 0 0 0 0 0 0 0 0 0 0 0 0 0 0 0 0 0 0 0 0 0 0 0
0 0 0 0 0 0 0 0 0 0 0 0 0 0 0 0 0 0 0 0 0 0 0 0 0 0 0 0 0 0 0 0 0 0 0 0 0 0 0 0 0 0 0 0
0 0 0 0 0 0 0 0 0 0 0 0 0 0 0 0 0 0 0 0 0 0 0 0 0 0 0 0 0 0 0 0 0 0 0 0 0 0 0 0 0 0 0 0
0 0 0 0 0 0 0 0 0 0 0 0 0 0 0 0 0 0 0 0 0 0 0 0 0 0 0 0 0 0 0 0 0 0 0 0 0 0 0 0 0 0 0 0
0 0 0 0 0 0 0 0 0 0 0 0 0 0 0 0 0 0 0 0 0 0 0 0 0 0 0 0 0 0 0 0 0 0 0 0 0 0 0 0 0 0 0 0
0 0 0 0 0 0 0 0 0 0 0 0 0 0 0 0 0 0 0 0 0 0 0 0 0 0 0 0 0 0 0 0 0 0 0 0 0 0 0 0 0 0 0 0
0 0 0 0 0 0 0 0 0 0 0 0 0 0 0 0 0 0 0 0 0 0 0 0 0 0 0 0 0 0 0 0 0 0 0 0 0 0 0 0 0 0 0 0
0 0 0 0 0 0 0 0 0 0 0 0 0 0 0 0 0 0 0 0 0 0 0 0 0 0 0 0 0 0 0 0 0 0 0 0 0 0 0 0 0 0 0 0
0 0 0 0 0 0 0 0 0 0 0 0 0 0 0 0 0 0 0 0 0 0 0 0 0 0 0 0 0 0 0 0 0 0 0 0 0 0 0 0 0 0 0 0
0 0 0 0 0 0 0 0 0 0 0 0 0 0 0 0 0 0 0 0 0 0 0 0 0 0 0 0 0 0 0 0 0 0 0 0 0 0 0 0 0 0 0 0
0 0 0 0 0 0 0 0 0 0 0 0 0 0 0 0 0 0 0 0 0 0 0 0 0 0 0 0 0 0 0 0 0 0 0 0 0 0 0 0 0 0 0 0
0 0 0 0 0 0 0 0 0 0 0 0 0 0 0 0 0 0 0 0 0 0 0 0 0 0 0 0 0 0 0 0 0 0 0 0 0 0 0 0 0 0 0 0
0 0 0 0 0 0 0 0 0 0 0 0 0 0 0 0 0 0 0 0 0 0 0 0 0 0 0 0 0 0 0 0 0 0 0 0 0 0 0 0 0 0 0 0
0 0 0 0 0 0 0 0 0 0 0 0 0 0 0 0 0 0 0 0 0 0 0 0 0 0 0 0 0 0 0 0 0 0 0 0 0 0 0 0 0 0 0 0
0 0 0 0 0 0 0 0 0 0 0 0 0 0 0 0 0 0 0 0 0 0 0 0 0 0 0 0 0 0 0 0 0 0 0 0 0 0 0 0 0 0 0 0
0 0 0 0 0 0 0 0 0 0 0 0 0 0 0 0 0 0 0 0 0 0 0 0 0 0 0 0 0 0 0 0 0 0 0 0 0 0 0 0 0 0 0 0
0 0 0 0 0 0 0 0 0 0 0 0 0 0 0 0 0 0 0 0 0 0 0 0 0 0 0 0 0 0 0 0 0 0 0 0 0 0 0 0 0 0 0 0
0 0 0 0 0 0 0 0 0 0 0 0 0 0 0 0 0 0 0 0 0 0 0 0 0 0 0 0 0 0 0 0 0 0 0 0 0 0 0 0 0 0 0 0
Wind_Speed
2 5 6 4 6 5 7 9 15 14 6 7 17 19 19 22 17 18 16 12 11 8 3 2 7 7 7 5 4 0 3 4 5 5 7 6 7 8 7 6 10 10 8 10
3 6 3 2 3 6 8 11 14 10 2 5 12 21 24 22 15 9 5 2 3 4 3 5 6 5 5 3 1 2 4 5 5 5 6 6 7 7 8 8 8 9 10 9
5 3 3 3 4 5 7 8 9 8 8 5 11 12 6 2 0 2 2 4 5 3 4 5 5 3 3 3 2 4 6 7 6 7 6 6 7 7 7 6 7 7 10 11
4 1 1 2 3 3 5 3 5 6 5 6 4 10 9 4 2 2 2 4 4 5 5 4 5 5 3 3 2 4 5 7 6 6 6 8 7 8 8 9 8 9 10 10
2 1 1 2 2 1 2 2 3 2 4 5 5 6 4 0 6 7 7 6 4 4 2 4 3 2 2 2 4 5 6 7 6 6 7 7 8 8 8 8 11 11 10 10
3 1 1 1 1 1 0 4 5 1 2 5 1 5 3 4 2 5 4 4 4 3 1 3 2 3 3 4 5 5 6 6 6 6 7 8 10 10 9 10 10 8 7 8
2 2 2 2 3 1 1 4 3 3 3 3 1 4 7 2 1 2 4 5 4 4 4 5 5 5 3 4 5 5 6 7 6 7 7 7 9 10 11 10 9 10 8 8
2 4 2 2 1 2 1 3 4 6 3 3 3 7 2 1 2 3 5 7 6 5 5 5 3 3 4 4 5 6 6 7 7 7 8 7 8 6 7 9 9 8 8 9
4 3 3 3 2 1 4 4 3 4 1 3 3 4 1 2 2 2 3 6 10 8 6 4 2 3 4 4 5 6 7 7 7 8 7 8 7 7 8 9 9 8 9 8
3 4 1 2 2 2 2 4 3 3 4 4 3 4 3 3 1 3 6 12 10 8 7 5 3 4 3 4 5 6 6 7 8 8 7 7 8 7 7 7 9 10 10 10
4 2 3 2 5 4 4 4 4 3 2 3 4 1 2 3 1 6 12 11 10 8 6 5 4 4 3 4 4 4 5 6 6 6 7 8 7 7 6 6 7 8 8 9
2 2 4 1 1 3 2 3 5 4 5 0 2 6 3 1 3 7 13 11 9 7 6 5 5 4 4 4 4 4 4 5 5 6 7 7 7 7 6 6 7 8 8 8
6 3 4 4 3 2 5 4 2 3 1 7 4 3 2 2 8 5 9 10 8 7 6 5 5 4 4 3 4 4 4 5 6 6 6 6 6 6 7 7 8 7 6 7
3 3 5 5 2 3 4 6 7 6 4 3 8 9 8 13 19 17 16 14 13 9 6 4 4 5 4 4 4 3 4 4 5 6 5 5 6 6 6 7 7 8 7 6
3 5 2 8 12 9 11 11 11 12 9 9 1 7 13 17 13 11 13 12 12 9 6 3 4 4 4 4 3 4 5 4 4 5 4 5 6 6 6 6 6 7 7 7
4 3 0 5 4 5 6 11 13 16 12 9 10 18 2 6 8 8 11 11 12 11 8 5 4 5 6 6 4 4 4 4 3 3 3 4 5 5 5 5 5 6 6 7
6 3 1 4 2 6 4 3 4 2 2 4 6 3 8 12 12 11 10 10 10 11 9 7 6 6 6 7 6 6 4 4 4 3 2 1 3 4 5 5 5 5 6 6
5 3 2 4 4 4 2 1 1 3 4 8 7 8 9 13 14 13 8 6 12 11 9 7 5 6 7 7 7 6 6 6 5 4 3 3 2 2 3 4 4 4 4 5
4 3 3 3 3 6 3 4 5 5 5 5 5 8 11 11 11 4 4 4 7 10 10 9 6 5 6 7 7 7 6 7 6 7 6 5 4 4 3 3 3 3 3 3
6 2 3 3 4 4 4 1 3 2 5 5 4 7 9 12 7 2 2 13 14 10 8 8 7 6 8 8 8 8 8 8 9 8 7 6 5 5 5 4 4 3 4 3
5 4 8 5 4 5 1 3 4 4 2 2 3 6 6 7 6 16 18 15 12 10 11 8 6 9 9 7 8 10 9 11 9 6 6 6 6 6 5 4 4 4 4 4
7 8 5 4 4 5 5 5 3 4 3 6 6 10 13 11 13 13 14 14 13 13 11 7 8 10 9 9 10 12 14 10 8 8 8 8 7 6 5 5 4 4 5 5
5 3 2 6 2 3 3 2 3 5 7 8 12 12 13 14 15 15 15 16 15 15 13 11 10 11 9 9 12 13 13 8 8 7 8 7 6 7 6 6 6 5 5 5
5 4 2 2 3 2 2 5 4 3 7 10 10 12 11 14 15 16 14 15 15 12 12 11 11 11 12 8 11 15 10 6 7 9 9 7 7 9 8 6 6 6 6 6
1 6 4 4 2 4 7 7 9 8 8 10 11 11 11 12 14 14 15 15 14 14 12 11 12 11 12 12 11 11 10 8 10 9 8 9 8 8 8 8 7 7 8 8
6 6 5 2 4 1 2 7 8 10 11 11 12 13 11 11 13 15 15 13 14 14 14 12 12 12 12 12 12 9 9 9 11 11 9 9 8 7 7 7 7 15 17 15
Wind_Direction
54 243 234 287 253 304 294 276 277 276 274 286 272 282 282 279 272 267 273 261 260 264 3 217 148 149 148 149 155 114 312 332 329 322 319 322 317 311 301 301 299 294 291 293
208 243 51 294 241 243 249 272 277 282 192 255 289 287 278 276 284 279 300 146 121 120 102 126 141 150 166 157 143 288 309 324 325 318 319 300 301 292 296 293 290 296 297 295
243 81 316 256 257 251 254 252 282 287 315 253 299 267 277 145 215 150 148 96 90 95 148 151 163 173 185 230 266 305 323 323 319 314 298 288 283 280 286 291 298 296 293 296
256 55 272 257 265 235 272 3 290 286 308 293 339 295 277 308 328 145 126 131 93 95 105 147 182 199 222 236 279 310 310 306 302 303 296 298 298 297 298 296 293 292 289 289
79 193 67 296 343 249 311 315 280 266 270 309 185 247 262 235 96 90 77 72 68 71 109 169 192 239 244 295 301 304 304 305 305 309 308 304 292 290 292 289 293 296 296 295
281 40 352 15 30 309 303 277 234 142 242 247 21 268 303 34 73 106 81 73 46 28 246 224 221 226 250 267 284 298 301 305 319 318 302 293 292 294 294 300 301 301 306 300
332 99 94 344 231 143 292 282 284 238 199 290 144 242 300 337 201 273 341 339 328 315 316 289 267 263 264 280 296 310 319 318 313 303 297 292 288 292 292 297 298 299 299 298
280 200 176 31 23 11 85 303 290 288 292 333 155 239 161 132 234 263 274 272 294 325 326 323 312 291 285 298 320 320 313 297 301 302 299 292 284 282 291 288 293 294 296 296
199 236 127 64 74 292 127 207 25 281 91 265 256 253 249 50 69 43 296 324 343 343 335 333 289 268 297 319 318 302 296 302 311 309 303 297 290 292 291 296 294 293 296 295
171 282 92 107 166 81 282 128 197 194 268 264 250 261 193 177 149 310 329 333 337 341 341 325 306 289 299 312 298 293 308 309 308 301 300 298 301 296 298 297 295 296 289 288
157 256 130 165 199 169 162 208 213 304 239 283 309 29 212 130 53 332 318 333 333 324 319 305 283 273 298 277 277 300 306 304 302 309 306 304 308 309 303 289 293 288 291 291
149 163 257 249 20 300 267 246 204 243 167 143 332 275 57 91 272 289 313 318 319 313 303 282 276 279 276 279 290 295 296 294 305 301 305 312 315 314 313 313 312 310 314 317
174 200 285 182 184 185 230 192 197 89 92 210 222 246 146 204 309 326 287 308 310 320 309 274 260 254 258 262 279 295 299 300 302 303 304 316 321 327 324 327 323 330 332 331
204 221 242 261 29 100 207 200 206 208 207 172 239 294 295 341 334 328 330 325 311 300 290 280 263 240 233 245 262 281 287 292 301 301 311 320 327 327 324 325 327 334 340 351
202 249 214 264 266 257 255 251 203 210 219 234 301 263 311 307 314 310 308 311 319 318 311 290 249 230 230 238 239 246 260 281 290 295 316 324 325 327 322 333 340 344 353 360
193 260 188 274 309 219 250 246 243 224 231 252 294 294 344 302 285 303 324 330 335 334 322 297 248 236 230 229 233 246 256 264 266 279 311 324 327 329 344 348 354 9 10 18
181 238 302 265 312 291 250 238 188 191 267 211 230 275 323 318 321 317 313 324 323 324 316 298 269 236 224 211 215 227 230 246 249 260 281 327 334 338 344 348 4 3 4 5
166 192 212 283 302 225 41 146 255 248 246 221 288 279 296 290 293 284 268 270 320 327 316 304 271 248 234 215 210 222 221 233 240 241 244 250 234 262 309 329 345 347 355 358
179 180 212 274 280 322 169 197 173 202 219 193 231 280 296 296 299 253 188 224 285 298 291 278 262 243 241 221 214 215 224 234 241 241 235 227 230 249 249 261 293 309 321 334
189 160 232 157 259 228 86 83 187 195 255 164 210 280 312 327 342 279 320 328 313 301 282 280 259 239 232 229 214 224 231 231 236 233 230 227 234 238 244 252 266 275 276 277
156 184 214 206 265 281 238 141 157 195 42 208 221 279 295 295 278 302 309 307 303 293 299 301 264 249 240 218 206 229 235 235 231 223 224 225 227 234 245 251 258 274 282 284
179 165 186 157 218 259 148 139 265 354 309 315 309 309 295 285 293 293 301 302 310 313 316 306 287 267 251 227 215 232 235 232 220 221 226 227 222 227 229 238 265 279 286 283
217 223 177 212 210 83 185 359 71 354 309 329 315 311 307 308 309 315 315 317 318 318 318 318 304 294 271 234 222 235 239 216 206 210 223 223 222 227 228 230 238 246 240 260
220 189 230 221 162 221 248 119 57 338 336 325 321 311 313 310 315 315 320 319 318 317 315 317 313 302 292 260 232 239 249 205 204 219 225 222 224 230 225 229 231 234 236 238
87 156 184 264 228 93 148 68 18 356 340 338 336 325 317 315 315 320 318 317 316 314 315 316 309 304 301 294 266 249 237 212 221 224 226 228 230 226 235 231 232 227 233 228
185 179 190 197 139 304 323 8 26 354 348 339 333 329 336 331 324 324 314 314 313 315 317 313 307 301 302 300 288 271 238 218 228 234 228 229 227 228 229 237 250 236 243 239